This demonstration page uses our WeatherBlox Daily Observations layout. Learn more.

Left ArrowRight Arrow

Hourly Observations for January 26, 2016

Temp ( °F °C ) Dew Point ( °F °C ) Humidity (%) Winds ( mph kmh ) Pressure ( in mb ) Visibility ( mi km ) Precip ( " mm )
12:59 am 00:59 Mostly Cloudy 43 6.1 32 0 65 65 S 7 11 30.26 1025 10 16 0.00 0.00
1:59 am 01:59 Partly Cloudy 43 6.1 33 0.6 68 68 S 9 15 30.26 1025 10 16 0.00 0.00
2:59 am 02:59 Partly Cloudy 43 6.1 36 2.2 76 76 S 8 13 30.25 1024 10 16 0.00 0.00
3:59 am 03:59 Partly Cloudy 42 5.6 36 2.2 79 79 S 8 13 30.24 1024 10 16 0.00 0.00
4:59 am 04:59 Mostly Cloudy 42 5.6 37 2.8 82 82 SSW 6 9 30.24 1024 10 16 0.00 0.00
5:59 am 05:59 Mostly Cloudy 43 6.1 38 3.3 82 82 SSW 7 11 30.24 1024 10 16 0.00 0.00
6:59 am 06:59 Mostly Cloudy 44 6.7 39 3.9 83 83 SSW 7 11 30.23 1024 10 16 0.00 0.00
7:59 am 07:59 Mostly Cloudy 45 7.2 40 4.4 83 83 SSW 8 13 30.23 1024 10 16 0.00 0.00
8:59 am 08:59 Mostly Cloudy 48 8.9 38 3.3 68 68 SW 9 15 30.24 1024 10 16 0.00 0.00
9:59 am 09:59 Mostly Cloudy 54 12.2 37 2.8 53 53 SSW 12 19 30.24 1024 10 16 0.00 0.00
10:59 am 10:59 Mostly Cloudy 57 13.9 37 2.8 47 47 SW 9 15 30.22 1023 10 16 0.00 0.00
11:59 am 11:59 Mostly Cloudy 61 16.1 34 1.1 36 36 SW 14 22 30.18 1022 10 16 0.00 0.00
12:59 pm 12:59 Mostly Cloudy 63 17.2 36 2.2 37 37 SW 15 24 30.14 1021 10 16 0.00 0.00
1:59 pm 13:59 Mostly Cloudy 63 17.2 38 3.3 40 40 SW 13 20 30.11 1020 10 16 0.00 0.00
2:59 pm 14:59 Mostly Cloudy 64 17.8 39 3.9 40 40 SW 15 24 30.11 1020 10 16 0.00 0.00
3:59 pm 15:59 Mostly Cloudy 63 17.2 39 3.9 41 41 SW 9 15 30.11 1020 10 16 0.00 0.00
4:59 pm 16:59 Cloudy 61 16.1 40 4.4 46 46 SW 8 13 30.11 1020 10 16 0.00 0.00
5:59 pm 17:59 Cloudy 58 14.4 40 4.4 51 51 S 5 7 30.11 1020 10 16 0.00 0.00
6:59 pm 18:59 Mostly Cloudy 57 13.9 41 5 55 55 SSW 7 11 30.11 1020 10 16 0.00 0.00
7:59 pm 19:59 Mostly Cloudy 57 13.9 43 6.1 60 60 SSW 5 7 30.11 1020 10 16 0.00 0.00
8:59 pm 20:59 Mostly Cloudy 58 14.4 44 6.7 60 60 SSW 7 11 30.11 1020 10 16 0.00 0.00
9:59 pm 21:59 Mostly Cloudy 59 15 44 6.7 58 58 SW 8 13 30.09 1019 10 16 0.00 0.00
10:59 pm 22:59 Cloudy 57 13.9 45 7.2 64 64 SSW 8 13 30.08 1019 10 16 0.00 0.00
11:59 pm 23:59 Cloudy 57 13.9 45 7.2 64 64 SSW 8 13 30.06 1018 10 16 0.00 0.00

Powered by AerisWeather